| time (UTC) | temp F | wind direction | speed MPH | gust MPH | rain 1hr in | rain 24hr in | rain mn in | humidity % | barometer mb |
| 20260510134010 | 49 | 308 | 0.0 | 0.0 | 0.00 | 0.00 | 0.00 | 56 | 1019.8 |
| 20260510133517 | 49 | 308 | 0.0 | 0.0 | 0.00 | 0.00 | 0.00 | 56 | 1019.9 |
| 20260510133034 | 49 | 308 | 0.0 | 1.0 | 0.00 | 0.00 | 0.00 | 56 | 1019.9 |
| 20260510132510 | 49 | 308 | 0.0 | 1.0 | 0.00 | 0.00 | 0.00 | 56 | 1019.9 |
| 20260510132012 | 49 | 302 | 0.0 | 1.0 | 0.00 | 0.00 | 0.00 | 56 | 1019.9 |
| 20260510131530 | 48 | 285 | 0.0 | 1.0 | 0.00 | 0.00 | 0.00 | 56 | 1020.0 |
| 20260510131015 | 48 | 285 | 0.0 | 0.0 | 0.00 | 0.00 | 0.00 | 57 | 1020.0 |
| 20260510130514 | 48 | 285 | 0.0 | 0.0 | 0.00 | 0.00 | 0.00 | 57 | 1020.0 |
| 20260510130037 | 48 | 285 | 0.0 | 2.0 | 0.00 | 0.00 | 0.00 | 58 | 1020.0 |
| 20260510125515 | 48 | 285 | 1.0 | 2.0 | 0.00 | 0.00 | 0.00 | 58 | 1020.0 |
| 20260510125012 | 48 | 286 | 0.0 | 2.0 | 0.00 | 0.00 | 0.00 | 58 | 1020.2 |
| 20260510124533 | 48 | 285 | 0.0 | 2.0 | 0.00 | 0.00 | 0.00 | 58 | 1020.1 |
| 20260510124010 | 48 | 232 | 0.0 | 2.0 | 0.00 | 0.00 | 0.00 | 58 | 1020.1 |
| 20260510123511 | 48 | 232 | 0.0 | 2.0 | 0.00 | 0.00 | 0.00 | 58 | 1020.1 |
| 20260510123035 | 48 | 232 | 0.0 | 1.0 | 0.00 | 0.00 | 0.00 | 58 | 1020.0 |
| 20260510122513 | 48 | 232 | 0.0 | 1.0 | 0.00 | 0.00 | 0.00 | 58 | 1020.1 |
| 20260510122013 | 48 | 232 | 0.0 | 1.0 | 0.00 | 0.00 | 0.00 | 58 | 1020.1 |
| 20260510121532 | 48 | 232 | 0.0 | 1.0 | 0.00 | 0.00 | 0.00 | 58 | 1020.1 |
| 20260510121013 | 47 | 232 | 0.0 | 0.0 | 0.00 | 0.00 | 0.00 | 58 | 1020.2 |
| 20260510120511 | 47 | 232 | 0.0 | 0.0 | 0.00 | 0.00 | 0.00 | 58 | 1020.3 |
| 20260510120031 | 47 | 232 | 0.0 | 0.0 | 0.00 | 0.00 | 0.00 | 58 | 1020.3 |
| 20260510115511 | 47 | 232 | 0.0 | 2.0 | 0.00 | 0.00 | 0.00 | 58 | 1020.3 |
| 20260510115016 | 47 | 232 | 0.0 | 2.0 | 0.00 | 0.00 | 0.00 | 59 | 1020.4 |
| 20260510114600 | 47 | 227 | 0.0 | 1.0 | 0.00 | 0.00 | 0.00 | 59 | 1020.3 |
| 20260510114015 | 47 | 227 | 0.0 | 0.0 | 0.00 | 0.00 | 0.00 | 59 | 1020.3 |
| 20260510113512 | 47 | 227 | 0.0 | 0.0 | 0.00 | 0.00 | 0.00 | 59 | 1020.4 |
| 20260510113050 | 47 | 227 | 0.0 | 0.0 | 0.00 | 0.00 | 0.00 | 59 | 1020.3 |
| 20260510112514 | 47 | 227 | 0.0 | 0.0 | 0.00 | 0.00 | 0.00 | 59 | 1020.5 |
| 20260510112012 | 47 | 227 | 0.0 | 1.0 | 0.00 | 0.00 | 0.00 | 59 | 1020.4 |
| 20260510111538 | 47 | 227 | 0.0 | 1.0 | 0.00 | 0.00 | 0.00 | 59 | 1020.5 |
| 20260510111012 | 47 | 227 | 0.0 | 0.0 | 0.00 | 0.00 | 0.00 | 59 | 1020.5 |
| 20260510110516 | 47 | 227 | 0.0 | 0.0 | 0.00 | 0.00 | 0.00 | 59 | 1020.8 |
| 20260510110040 | 47 | 227 | 0.0 | 1.0 | 0.00 | 0.00 | 0.00 | 59 | 1020.6 |
| 20260510105512 | 47 | 227 | 0.0 | 2.0 | 0.00 | 0.00 | 0.00 | 59 | 1020.6 |
| 20260510105011 | 47 | 227 | 0.0 | 2.0 | 0.00 | 0.00 | 0.00 | 59 | 1020.7 |
| 20260510104530 | 47 | 227 | 0.0 | 2.0 | 0.00 | 0.00 | 0.00 | 59 | 1020.7 |
| 20260510104012 | 47 | 215 | 0.0 | 2.0 | 0.00 | 0.00 | 0.00 | 59 | 1020.6 |
| 20260510103512 | 47 | 215 | 0.0 | 2.0 | 0.00 | 0.00 | 0.00 | 59 | 1020.6 |
| 20260510103034 | 47 | 215 | 0.0 | 2.0 | 0.00 | 0.00 | 0.00 | 59 | 1020.8 |
| 20260510102513 | 47 | 215 | 0.0 | 2.0 | 0.00 | 0.00 | 0.00 | 59 | 1020.8 |
| 20260510102016 | 47 | 213 | 0.0 | 2.0 | 0.00 | 0.00 | 0.00 | 59 | 1020.8 |
| 20260510101535 | 47 | 213 | 0.0 | 3.0 | 0.00 | 0.00 | 0.00 | 59 | 1020.8 |
| 20260510101011 | 47 | 212 | 1.0 | 3.0 | 0.00 | 0.00 | 0.00 | 60 | 1020.9 |
| 20260510100514 | 47 | 207 | 1.0 | 2.0 | 0.00 | 0.00 | 0.00 | 60 | 1021.0 |
| 20260510100050 | 47 | 184 | 1.0 | 3.0 | 0.00 | 0.00 | 0.00 | 60 | 1021.0 |
| 20260510095513 | 47 | 315 | 0.0 | 2.0 | 0.00 | 0.00 | 0.00 | 60 | 1021.0 |
| 20260510095013 | 47 | 315 | 0.0 | 2.0 | 0.00 | 0.00 | 0.00 | 60 | 1021.1 |
| 20260510094536 | 47 | 315 | 0.0 | 2.0 | 0.00 | 0.00 | 0.00 | 60 | 1021.0 |
| 20260510094011 | 47 | 315 | 0.0 | 2.0 | 0.00 | 0.00 | 0.00 | 60 | 1021.1 |
| 20260510093521 | 47 | 315 | 0.0 | 2.0 | 0.00 | 0.00 | 0.00 | 60 | 1021.2 |
| 20260510093035 | 47 | 315 | 0.0 | 2.0 | 0.00 | 0.00 | 0.00 | 60 | 1021.2 |
| 20260510092513 | 47 | 323 | 0.0 | 2.0 | 0.00 | 0.00 | 0.00 | 59 | 1021.3 |
| 20260510092014 | 47 | 323 | 0.0 | 1.0 | 0.00 | 0.00 | 0.00 | 59 | 1021.4 |
| 20260510091533 | 47 | 323 | 0.0 | 2.0 | 0.00 | 0.00 | 0.00 | 60 | 1021.3 |
| 20260510091014 | 47 | 323 | 0.0 | 1.0 | 0.00 | 0.00 | 0.00 | 60 | 1021.4 |
| 20260510090514 | 47 | 323 | 0.0 | 1.0 | 0.00 | 0.00 | 0.00 | 60 | 1021.4 |
| 20260510090032 | 47 | 323 | 0.0 | 1.0 | 0.00 | 0.00 | 0.00 | 60 | 1021.5 |
| 20260510085516 | 47 | 323 | 0.0 | 2.0 | 0.00 | 0.00 | 0.00 | 60 | 1021.4 |
| 20260510085014 | 47 | 327 | 0.0 | 2.0 | 0.00 | 0.00 | 0.00 | 60 | 1021.4 |
| 20260510084536 | 47 | 327 | 0.0 | 1.0 | 0.00 | 0.00 | 0.00 | 60 | 1021.4 |
| 20260510084013 | 48 | 323 | 0.0 | 1.0 | 0.00 | 0.00 | 0.00 | 60 | 1021.3 |
| 20260510083511 | 48 | 323 | 0.0 | 1.0 | 0.00 | 0.00 | 0.00 | 59 | 1021.3 |
| 20260510083042 | 48 | 323 | 0.0 | 1.0 | 0.00 | 0.00 | 0.00 | 59 | 1021.4 |
| 20260510082514 | 49 | 324 | 0.0 | 2.0 | 0.00 | 0.00 | 0.00 | 58 | 1021.4 |
| 20260510082014 | 49 | 317 | 0.0 | 2.0 | 0.00 | 0.00 | 0.00 | 58 | 1021.4 |
| 20260510081536 | 49 | 277 | 0.0 | 2.0 | 0.00 | 0.00 | 0.00 | 57 | 1021.4 |
| 20260510081015 | 49 | 277 | 0.0 | 3.0 | 0.00 | 0.00 | 0.00 | 57 | 1021.5 |
| 20260510080514 | 49 | 277 | 0.0 | 3.0 | 0.00 | 0.00 | 0.00 | 58 | 1021.5 |
| 20260510080035 | 49 | 276 | 1.0 | 2.0 | 0.00 | 0.00 | 0.00 | 59 | 1021.6 |
| 20260510075513 | 49 | 276 | 0.0 | 2.0 | 0.00 | 0.00 | 0.00 | 58 | 1021.6 |
| 20260510075012 | 49 | 266 | 0.0 | 2.0 | 0.00 | 0.00 | 0.00 | 58 | 1021.7 |
| 20260510074542 | 49 | 246 | 0.0 | 2.0 | 0.00 | 0.00 | 0.00 | 59 | 1021.6 |
| 20260510074013 | 49 | 246 | 0.0 | 2.0 | 0.00 | 0.00 | 0.00 | 59 | 1021.6 |
| 20260510073512 | 49 | 213 | 0.0 | 1.0 | 0.00 | 0.00 | 0.00 | 58 | 1021.6 |
| 20260510073046 | 49 | 213 | 0.0 | 2.0 | 0.00 | 0.00 | 0.00 | 58 | 1021.5 |
| 20260510072519 | 49 | 213 | 0.0 | 2.0 | 0.00 | 0.00 | 0.00 | 58 | 1021.6 |
| 20260510072013 | 49 | 213 | 0.0 | 2.0 | 0.00 | 0.00 | 0.00 | 58 | 1021.6 |
| 20260510071539 | 49 | 211 | 0.0 | 2.0 | 0.00 | 0.00 | 0.00 | 58 | 1021.7 |
| 20260510071016 | 49 | 190 | 0.0 | 1.0 | 0.00 | 0.00 | 0.00 | 58 | 1021.8 |
| 20260510070511 | 49 | 306 | 0.0 | 2.0 | 0.00 | 0.00 | 0.00 | 57 | 1021.7 |
| 20260510070047 | 50 | 294 | 0.0 | 2.0 | 0.00 | 0.00 | 0.00 | 57 | 1021.7 |
| 20260510065515 | 50 | 225 | 0.0 | 2.0 | 0.00 | 0.00 | 0.00 | 57 | 1021.8 |
| 20260510065012 | 50 | 211 | 0.0 | 2.0 | 0.00 | 0.00 | 0.00 | 57 | 1021.8 |
| 20260510064534 | 49 | 211 | 0.0 | 2.0 | 0.00 | 0.00 | 0.00 | 57 | 1021.9 |
| 20260510064013 | 49 | 207 | 0.0 | 2.0 | 0.00 | 0.00 | 0.00 | 57 | 1022.0 |
| 20260510063516 | 49 | 207 | 1.0 | 2.0 | 0.00 | 0.00 | 0.00 | 57 | 1022.1 |
| 20260510063039 | 49 | 207 | 1.0 | 2.0 | 0.00 | 0.00 | 0.00 | 57 | 1022.0 |
| 20260510062515 | 49 | 180 | 0.0 | 1.0 | 0.00 | 0.00 | 0.00 | 57 | 1022.1 |
| 20260510062014 | 50 | 180 | 0.0 | 1.0 | 0.00 | 0.00 | 0.00 | 57 | 1022.0 |
| 20260510061541 | 50 | 180 | 0.0 | 1.0 | 0.00 | 0.00 | 0.00 | 56 | 1022.1 |
| 20260510061013 | 50 | 196 | 0.0 | 2.0 | 0.00 | 0.00 | 0.00 | 56 | 1022.0 |
| 20260510060515 | 50 | 196 | 0.0 | 2.0 | 0.00 | 0.00 | 0.00 | 55 | 1022.1 |
| 20260510060041 | 50 | 222 | 0.0 | 1.0 | 0.00 | 0.00 | 0.00 | 54 | 1022.2 |
| 20260510055515 | 50 | 222 | 0.0 | 2.0 | 0.00 | 0.00 | 0.00 | 54 | 1022.4 |
| 20260510055015 | 50 | 222 | 0.0 | 2.0 | 0.00 | 0.00 | 0.00 | 55 | 1022.4 |
| 20260510054546 | 51 | 222 | 0.0 | 1.0 | 0.00 | 0.00 | 0.00 | 54 | 1022.4 |
| 20260510054013 | 51 | 222 | 0.0 | 2.0 | 0.00 | 0.00 | 0.00 | 54 | 1022.4 |
| 20260510053514 | 50 | 222 | 0.0 | 2.0 | 0.00 | 0.00 | 0.00 | 54 | 1022.4 |
| 20260510053041 | 50 | 222 | 0.0 | 1.0 | 0.00 | 0.00 | 0.00 | 55 | 1022.5 |
| 20260510052513 | 50 | 222 | 0.0 | 2.0 | 0.00 | 0.00 | 0.00 | 55 | 1022.4 |
| 20260510052014 | 50 | 222 | 0.0 | 2.0 | 0.00 | 0.00 | 0.00 | 55 | 1022.3 |
| 20260510051543 | 51 | 222 | 0.0 | 3.0 | 0.00 | 0.00 | 0.00 | 55 | 1022.5 |
| 20260510051016 | 51 | 169 | 1.0 | 2.0 | 0.00 | 0.00 | 0.00 | 55 | 1022.4 |
| 20260510050514 | 51 | 148 | 1.0 | 2.0 | 0.00 | 0.00 | 0.00 | 55 | 1022.4 |
| 20260510050037 | 51 | 133 | 0.0 | 1.0 | 0.00 | 0.00 | 0.00 | 55 | 1022.4 |
| 20260510045515 | 51 | 133 | 0.0 | 2.0 | 0.00 | 0.00 | 0.00 | 55 | 1022.4 |
| 20260510045013 | 51 | 145 | 0.0 | 2.0 | 0.00 | 0.00 | 0.00 | 55 | 1022.4 |
| 20260510044537 | 51 | 180 | 0.0 | 2.0 | 0.00 | 0.00 | 0.00 | 55 | 1022.5 |
| 20260510044015 | 51 | 180 | 0.0 | 2.0 | 0.00 | 0.00 | 0.00 | 55 | 1022.6 |
| 20260510043516 | 51 | 246 | 0.0 | 2.0 | 0.00 | 0.00 | 0.00 | 55 | 1022.6 |
| 20260510043040 | 51 | 140 | 0.0 | 1.0 | 0.00 | 0.00 | 0.00 | 55 | 1022.6 |
| 20260510042515 | 51 | 152 | 0.0 | 1.0 | 0.00 | 0.00 | 0.00 | 55 | 1022.6 |
| 20260510042012 | 51 | 148 | 0.0 | 1.0 | 0.00 | 0.00 | 0.00 | 55 | 1022.5 |
| 20260510041549 | 51 | 146 | 0.0 | 2.0 | 0.00 | 0.00 | 0.00 | 55 | 1022.4 |
| 20260510041015 | 51 | 145 | 0.0 | 2.0 | 0.00 | 0.00 | 0.00 | 54 | 1022.3 |
| 20260510040511 | 51 | 190 | 0.0 | 2.0 | 0.00 | 0.00 | 0.00 | 54 | 1022.1 |
| 20260510040042 | 52 | 133 | 0.0 | 1.0 | 0.00 | 0.00 | 0.00 | 54 | 1022.2 |
| 20260510035514 | 52 | 131 | 0.0 | 1.0 | 0.00 | 0.00 | 0.00 | 54 | 1022.2 |
| 20260510035014 | 52 | 131 | 0.0 | 1.0 | 0.00 | 0.00 | 0.00 | 53 | 1022.1 |
| 20260510034539 | 52 | 219 | 0.0 | 2.0 | 0.00 | 0.00 | 0.00 | 53 | 1022.1 |
| 20260510034014 | 52 | 219 | 0.0 | 2.0 | 0.00 | 0.00 | 0.00 | 53 | 1022.3 |
| 20260510033513 | 52 | 129 | 0.0 | 2.0 | 0.00 | 0.00 | 0.00 | 53 | 1022.3 |
| 20260510033054 | 52 | 133 | 0.0 | 2.0 | 0.00 | 0.00 | 0.00 | 52 | 1022.3 |
| 20260510032514 | 52 | 128 | 0.0 | 2.0 | 0.00 | 0.00 | 0.00 | 52 | 1022.3 |
| 20260510032015 | 52 | 105 | 0.0 | 1.0 | 0.00 | 0.00 | 0.00 | 52 | 1022.1 |
| 20260510031541 | 53 | 152 | 0.0 | 2.0 | 0.00 | 0.00 | 0.00 | 51 | 1022.2 |
| 20260510031016 | 53 | 150 | 0.0 | 2.0 | 0.00 | 0.00 | 0.00 | 50 | 1022.4 |
| 20260510030512 | 53 | 150 | 0.0 | 5.0 | 0.00 | 0.00 | 0.00 | 49 | 1022.2 |
| 20260510030043 | 53 | 144 | 1.0 | 5.0 | 0.00 | 0.00 | 0.00 | 49 | 1022.2 |
| 20260510025514 | 53 | 144 | 0.0 | 6.0 | 0.00 | 0.00 | 0.00 | 49 | 1022.2 |
| 20260510025012 | 54 | 98 | 0.0 | 7.0 | 0.00 | 0.00 | 0.00 | 48 | 1022.1 |
| 20260510024543 | 54 | 146 | 0.0 | 7.0 | 0.00 | 0.00 | 0.00 | 47 | 1022.1 |
| 20260510024015 | 54 | 168 | 0.0 | 5.0 | 0.00 | 0.00 | 0.00 | 47 | 1022.2 |
| 20260510023514 | 54 | 132 | 1.0 | 5.0 | 0.00 | 0.00 | 0.00 | 45 | 1022.3 |
| 20260510023044 | 54 | 109 | 0.0 | 3.0 | 0.00 | 0.00 | 0.00 | 46 | 1022.3 |
| 20260510022520 | 54 | 134 | 0.0 | 3.0 | 0.00 | 0.00 | 0.00 | 45 | 1022.4 |
| 20260510022016 | 55 | 90 | 0.0 | 3.0 | 0.00 | 0.00 | 0.00 | 45 | 1022.4 |
| 20260510021543 | 55 | 138 | 0.0 | 1.0 | 0.00 | 0.00 | 0.00 | 44 | 1022.5 |
| 20260510021016 | 56 | 134 | 0.0 | 4.0 | 0.00 | 0.00 | 0.00 | 44 | 1022.4 |
| 20260510020515 | 56 | 152 | 1.0 | 4.0 | 0.00 | 0.00 | 0.00 | 43 | 1022.4 |
| 20260510020043 | 56 | 155 | 0.0 | 3.0 | 0.00 | 0.00 | 0.00 | 43 | 1022.4 |
| 20260510015516 | 57 | 127 | 1.0 | 3.0 | 0.00 | 0.00 | 0.00 | 42 | 1022.4 |
| 20260510015015 | 57 | 143 | 1.0 | 3.0 | 0.00 | 0.00 | 0.00 | 41 | 1022.6 |
| 20260510014541 | 57 | 150 | 1.0 | 3.0 | 0.00 | 0.00 | 0.00 | 42 | 1022.5 |
| 20260510014016 | 57 | 134 | 0.0 | 2.0 | 0.00 | 0.00 | 0.00 | 43 | 1022.5 |
| 20260510013519 | 57 | 128 | 0.0 | 4.0 | 0.00 | 0.00 | 0.00 | 43 | 1022.6 |
| 20260510013046 | 57 | 150 | 1.0 | 6.0 | 0.00 | 0.00 | 0.00 | 41 | 1022.6 |
| 20260510012515 | 57 | 149 | 1.0 | 6.0 | 0.00 | 0.00 | 0.00 | 41 | 1022.6 |
| 20260510012015 | 57 | 130 | 1.0 | 5.0 | 0.00 | 0.00 | 0.00 | 40 | 1022.7 |
| 20260510011535 | 57 | 144 | 1.0 | 4.0 | 0.00 | 0.00 | 0.00 | 41 | 1022.8 |
| 20260510011015 | 58 | 123 | 1.0 | 4.0 | 0.00 | 0.00 | 0.00 | 40 | 1022.8 |
| 20260510010513 | 58 | 125 | 0.0 | 4.0 | 0.00 | 0.00 | 0.00 | 40 | 1022.8 |
| 20260510010100 | 58 | 148 | 1.0 | 5.0 | 0.00 | 0.00 | 0.00 | 42 | 1022.9 |
| 20260510005514 | 58 | 134 | 1.0 | 4.0 | 0.00 | 0.00 | 0.00 | 40 | 1023.0 |
| 20260510005015 | 58 | 117 | 1.0 | 3.0 | 0.00 | 0.00 | 0.00 | 40 | 1023.0 |
| 20260510004551 | 58 | 126 | 1.0 | 3.0 | 0.00 | 0.00 | 0.00 | 41 | 1022.9 |
| 20260510004018 | 58 | 143 | 1.0 | 5.0 | 0.00 | 0.00 | 0.00 | 40 | 1022.9 |
| 20260510003514 | 58 | 132 | 1.0 | 5.0 | 0.00 | 0.00 | 0.00 | 39 | 1022.9 |
| 20260510003054 | 58 | 140 | 0.0 | 6.0 | 0.00 | 0.00 | 0.00 | 41 | 1022.8 |
| 20260510002516 | 58 | 132 | 1.0 | 6.0 | 0.00 | 0.00 | 0.00 | 39 | 1022.9 |
| 20260510002014 | 58 | 155 | 0.0 | 5.0 | 0.00 | 0.00 | 0.00 | 39 | 1023.0 |
| 20260510001550 | 58 | 148 | 2.0 | 7.0 | 0.00 | 0.00 | 0.00 | 37 | 1023.1 |
| 20260510001014 | 58 | 117 | 1.0 | 7.0 | 0.00 | 0.00 | 0.00 | 39 | 1023.2 |
| 20260510000515 | 59 | 146 | 2.0 | 7.0 | 0.00 | 0.00 | 0.00 | 38 | 1023.0 |
| 20260510000057 | 59 | 115 | 1.0 | 7.0 | 0.00 | 0.00 | 0.00 | 40 | 1023.1 |
| 20260509235514 | 59 | 112 | 1.0 | 5.0 | 0.00 | 0.00 | 0.00 | 40 | 1023.0 |
| 20260509235016 | 59 | 98 | 2.0 | 8.0 | 0.00 | 0.00 | 0.00 | 38 | 1023.0 |
| 20260509234546 | 59 | 69 | 2.0 | 8.0 | 0.00 | 0.00 | 0.00 | 39 | 1023.0 |
| 20260509234018 | 59 | 96 | 2.0 | 5.0 | 0.00 | 0.00 | 0.00 | 39 | 1023.1 |
| 20260509233513 | 59 | 160 | 1.0 | 7.0 | 0.00 | 0.00 | 0.00 | 39 | 1023.2 |
| 20260509233039 | 60 | 114 | 2.0 | 7.0 | 0.00 | 0.00 | 0.00 | 39 | 1023.2 |
| 20260509232515 | 59 | 98 | 2.0 | 8.0 | 0.00 | 0.00 | 0.00 | 39 | 1023.2 |
| 20260509232014 | 60 | 130 | 3.0 | 8.0 | 0.00 | 0.00 | 0.00 | 36 | 1023.4 |
| 20260509231544 | 60 | 144 | 2.0 | 8.0 | 0.00 | 0.00 | 0.00 | 38 | 1023.5 |
| 20260509231013 | 60 | 153 | 2.0 | 8.0 | 0.00 | 0.00 | 0.00 | 38 | 1023.5 |
| 20260509230513 | 60 | 112 | 2.0 | 7.0 | 0.00 | 0.00 | 0.00 | 42 | 1023.6 |
| 20260509230055 | 60 | 104 | 2.0 | 8.0 | 0.00 | 0.00 | 0.00 | 40 | 1023.5 |
| 20260509225516 | 60 | 130 | 3.0 | 8.0 | 0.00 | 0.00 | 0.00 | 38 | 1023.5 |
| 20260509225016 | 60 | 146 | 2.0 | 8.0 | 0.00 | 0.00 | 0.00 | 40 | 1023.6 |
| 20260509224548 | 60 | 117 | 1.0 | 7.0 | 0.00 | 0.00 | 0.00 | 40 | 1023.6 |
| 20260509224015 | 60 | 132 | 2.0 | 7.0 | 0.00 | 0.00 | 0.00 | 41 | 1023.7 |
| 20260509223517 | 60 | 191 | 3.0 | 7.0 | 0.00 | 0.00 | 0.00 | 39 | 1023.7 |
| 20260509223057 | 60 | 134 | 1.0 | 7.0 | 0.00 | 0.00 | 0.00 | 39 | 1023.8 |
| 20260509222514 | 60 | 148 | 2.0 | 7.0 | 0.00 | 0.00 | 0.00 | 39 | 1023.8 |
| 20260509222020 | 60 | 136 | 2.0 | 9.0 | 0.00 | 0.00 | 0.00 | 38 | 1023.8 |
| 20260509221550 | 59 | 107 | 3.0 | 9.0 | 0.00 | 0.00 | 0.00 | 40 | 1024.0 |
| 20260509221016 | 59 | 111 | 3.0 | 7.0 | 0.00 | 0.00 | 0.00 | 37 | 1023.9 |
| 20260509220515 | 59 | 127 | 3.0 | 7.0 | 0.00 | 0.00 | 0.00 | 42 | 1023.9 |
| 20260509220056 | 59 | 146 | 2.0 | 7.0 | 0.00 | 0.00 | 0.00 | 40 | 1024.1 |
| 20260509215517 | 59 | 114 | 3.0 | 7.0 | 0.00 | 0.00 | 0.00 | 39 | 1024.1 |
| 20260509215016 | 59 | 126 | 2.0 | 10.0 | 0.00 | 0.00 | 0.00 | 40 | 1024.0 |
| 20260509214543 | 59 | 115 | 5.0 | 10.0 | 0.00 | 0.00 | 0.00 | 41 | 1024.0 |
| 20260509214015 | 59 | 146 | 3.0 | 8.0 | 0.00 | 0.00 | 0.00 | 41 | 1024.2 |
| 20260509213518 | 59 | 146 | 3.0 | 9.0 | 0.00 | 0.00 | 0.00 | 38 | 1024.2 |
| 20260509213049 | 60 | 168 | 2.0 | 7.0 | 0.00 | 0.00 | 0.00 | 41 | 1024.2 |
| 20260509212514 | 59 | 132 | 2.0 | 8.0 | 0.00 | 0.00 | 0.00 | 40 | 1024.2 |
| 20260509212018 | 59 | 74 | 4.0 | 10.0 | 0.00 | 0.00 | 0.00 | 41 | 1024.2 |
| 20260509211552 | 59 | 141 | 5.0 | 10.0 | 0.00 | 0.00 | 0.00 | 41 | 1024.2 |
| 20260509211015 | 59 | 98 | 3.0 | 8.0 | 0.00 | 0.00 | 0.00 | 41 | 1024.2 |
| 20260509210514 | 59 | 115 | 4.0 | 9.0 | 0.00 | 0.00 | 0.00 | 42 | 1024.4 |
| 20260509210048 | 59 | 87 | 4.0 | 9.0 | 0.00 | 0.00 | 0.00 | 43 | 1024.3 |
| 20260509205516 | 58 | 75 | 2.0 | 8.0 | 0.00 | 0.00 | 0.00 | 43 | 1024.3 |
| 20260509205015 | 58 | 92 | 3.0 | 8.0 | 0.00 | 0.00 | 0.00 | 42 | 1024.2 |
| 20260509204558 | 58 | 142 | 3.0 | 8.0 | 0.00 | 0.00 | 0.00 | 42 | 1024.4 |
| 20260509204015 | 58 | 126 | 2.0 | 9.0 | 0.00 | 0.00 | 0.00 | 46 | 1024.3 |
| 20260509203518 | 58 | 81 | 4.0 | 10.0 | 0.00 | 0.00 | 0.00 | 43 | 1024.4 |
| 20260509203047 | 58 | 86 | 4.0 | 10.0 | 0.00 | 0.00 | 0.00 | 45 | 1024.3 |
| 20260509202516 | 57 | 71 | 3.0 | 10.0 | 0.00 | 0.00 | 0.00 | 45 | 1024.3 |
| 20260509202017 | 57 | 112 | 4.0 | 10.0 | 0.00 | 0.00 | 0.00 | 43 | 1024.3 |
| 20260509201550 | 58 | 55 | 2.0 | 9.0 | 0.00 | 0.00 | 0.00 | 45 | 1024.4 |
| 20260509201016 | 58 | 104 | 3.0 | 11.0 | 0.00 | 0.00 | 0.00 | 46 | 1024.4 |
| 20260509200518 | 57 | 86 | 4.0 | 11.0 | 0.00 | 0.00 | 0.00 | 44 | 1024.3 |
| 20260509200112 | 58 | 76 | 4.0 | 10.0 | 0.00 | 0.00 | 0.00 | 41 | 1024.2 |
| 20260509195520 | 59 | 139 | 4.0 | 10.0 | 0.00 | 0.00 | 0.00 | 39 | 1024.3 |
| 20260509195019 | 59 | 197 | 4.0 | 10.0 | 0.00 | 0.00 | 0.00 | 41 | 1024.5 |
| 20260509194555 | 59 | 198 | 3.0 | 9.0 | 0.00 | 0.00 | 0.00 | 42 | 1024.6 |
| 20260509194015 | 59 | 116 | 3.0 | 9.0 | 0.00 | 0.00 | 0.00 | 43 | 1024.4 |
| 20260509193516 | 58 | 178 | 3.0 | 8.0 | 0.00 | 0.00 | 0.00 | 45 | 1024.4 |
| 20260509193054 | 58 | 164 | 2.0 | 9.0 | 0.00 | 0.00 | 0.00 | 43 | 1024.3 |
| 20260509192513 | 58 | 177 | 2.0 | 9.0 | 0.00 | 0.00 | 0.00 | 44 | 1024.3 |
| 20260509192018 | 57 | 119 | 4.0 | 11.0 | 0.00 | 0.00 | 0.00 | 48 | 1024.3 |
| 20260509191600 | 58 | 24 | 3.0 | 12.0 | 0.00 | 0.00 | 0.00 | 48 | 1024.3 |
| 20260509191015 | 57 | 87 | 3.0 | 12.0 | 0.00 | 0.00 | 0.00 | 47 | 1024.4 |
| 20260509190523 | 57 | 113 | 3.0 | 8.0 | 0.00 | 0.00 | 0.00 | 48 | 1024.4 |
| 20260509185524 | 57 | 117 | 3.0 | 10.0 | 0.00 | 0.00 | 0.00 | 45 | 1024.4 |
| 20260509185021 | 57 | 121 | 3.0 | 10.0 | 0.00 | 0.00 | 0.00 | 48 | 1024.4 |
| 20260509184547 | 57 | 118 | 3.0 | 7.0 | 0.00 | 0.00 | 0.00 | 48 | 1024.5 |
| 20260509184018 | 57 | 64 | 3.0 | 9.0 | 0.00 | 0.00 | 0.00 | 50 | 1024.3 |
| 20260509183517 | 56 | 70 | 3.0 | 9.0 | 0.00 | 0.00 | 0.00 | 49 | 1024.3 |
| 20260509183053 | 55 | 98 | 3.0 | 8.0 | 0.00 | 0.00 | 0.00 | 52 | 1024.4 |
| 20260509182528 | 54 | 57 | 3.0 | 9.0 | 0.00 | 0.00 | 0.00 | 52 | 1024.4 |
| 20260509182017 | 55 | 121 | 3.0 | 9.0 | 0.00 | 0.00 | 0.00 | 48 | 1024.3 |
| 20260509181559 | 55 | 124 | 3.0 | 11.0 | 0.00 | 0.00 | 0.00 | 48 | 1024.3 |
| 20260509181218 | 55 | 123 | 3.0 | 11.0 | 0.00 | 0.00 | 0.00 | 50 | 1024.4 |
| 20260509180517 | 55 | 151 | 3.0 | 8.0 | 0.00 | 0.00 | 0.00 | 52 | 1024.3 |
| 20260509180059 | 55 | 76 | 4.0 | 8.0 | 0.00 | 0.00 | 0.00 | 48 | 1024.3 |
| 20260509175518 | 55 | 105 | 2.0 | 9.0 | 0.00 | 0.00 | 0.00 | 46 | 1024.2 |
| 20260509175021 | 56 | 109 | 4.0 | 10.0 | 0.00 | 0.00 | 0.00 | 45 | 1024.2 |
| 20260509174602 | 56 | 113 | 3.0 | 10.0 | 0.00 | 0.00 | 0.00 | 44 | 1024.1 |
| 20260509174017 | 56 | 86 | 3.0 | 7.0 | 0.00 | 0.00 | 0.00 | 43 | 1024.1 |
| 20260509173518 | 56 | 109 | 3.0 | 8.0 | 0.00 | 0.00 | 0.00 | 50 | 1024.1 |
| 20260509173110 | 56 | 146 | 3.0 | 9.0 | 0.00 | 0.00 | 0.00 | 48 | 1024.1 |
| 20260509172517 | 55 | 71 | 3.0 | 9.0 | 0.00 | 0.00 | 0.00 | 47 | 1024.1 |
| 20260509172018 | 55 | 102 | 2.0 | 8.0 | 0.00 | 0.00 | 0.00 | 41 | 1024.0 |
| 20260509171601 | 56 | 109 | 2.0 | 7.0 | 0.00 | 0.00 | 0.00 | 45 | 1023.9 |
| 20260509171016 | 57 | 86 | 3.0 | 7.0 | 0.00 | 0.00 | 0.00 | 44 | 1023.9 |
| 20260509170624 | 56 | 144 | 2.0 | 7.0 | 0.00 | 0.00 | 0.00 | 43 | 1023.9 |
| 20260509170618 | 56 | 119 | 1.0 | 8.0 | 0.00 | 0.00 | 0.00 | 45 | 1023.9 |
| 20260509165514 | 55 | 78 | 2.0 | 8.0 | 0.00 | 0.00 | 0.00 | 48 | 1023.9 |
| 20260509165014 | 54 | 70 | 2.0 | 8.0 | 0.00 | 0.00 | 0.00 | 47 | 1023.8 |
| 20260509164545 | 54 | 99 | 3.0 | 8.0 | 0.00 | 0.00 | 0.00 | 45 | 1023.9 |
| 20260509164014 | 54 | 76 | 4.0 | 8.0 | 0.00 | 0.00 | 0.00 | 47 | 1023.9 |
| 20260509163513 | 55 | 114 | 3.0 | 7.0 | 0.00 | 0.00 | 0.00 | 46 | 1023.9 |
| 20260509163100 | 56 | 88 | 2.0 | 7.0 | 0.00 | 0.00 | 0.00 | 52 | 1023.8 |
| 20260509162522 | 56 | 107 | 2.0 | 7.0 | 0.00 | 0.00 | 0.00 | 53 | 1023.9 |
| 20260509162025 | 56 | 88 | 2.0 | 6.0 | 0.00 | 0.00 | 0.00 | 49 | 1023.7 |
| 20260509161808 | 56 | 121 | 1.0 | 3.0 | 0.00 | 0.00 | 0.00 | 48 | 1023.8 |
| 20260509161013 | 56 | 107 | 1.0 | 3.0 | 0.00 | 0.00 | 0.00 | 40 | 1023.9 |
| 20260509160514 | 55 | 168 | 0.0 | 5.0 | 0.00 | 0.00 | 0.00 | 43 | 1023.9 |
| 20260509160044 | 54 | 67 | 1.0 | 5.0 | 0.00 | 0.00 | 0.00 | 55 | 1023.9 |
| 20260509155512 | 54 | 69 | 2.0 | 3.0 | 0.00 | 0.00 | 0.00 | 43 | 1023.9 |
| 20260509155013 | 53 | 170 | 1.0 | 5.0 | 0.00 | 0.00 | 0.00 | 43 | 1023.9 |
| 20260509154536 | 52 | 203 | 2.0 | 5.0 | 0.00 | 0.00 | 0.00 | 40 | 1023.8 |
| 20260509154014 | 53 | 160 | 1.0 | 4.0 | 0.00 | 0.00 | 0.00 | 39 | 1023.8 |
| 20260509153518 | 53 | 215 | 2.0 | 4.0 | 0.00 | 0.00 | 0.00 | 41 | 1023.8 |
| 20260509153049 | 53 | 201 | 1.0 | 3.0 | 0.00 | 0.00 | 0.00 | 41 | 1023.7 |
| 20260509152513 | 52 | 169 | 0.0 | 3.0 | 0.00 | 0.00 | 0.00 | 42 | 1023.8 |
| 20260509152015 | 52 | 160 | 1.0 | 3.0 | 0.00 | 0.00 | 0.00 | 42 | 1023.8 |
| 20260509151547 | 52 | 126 | 1.0 | 3.0 | 0.00 | 0.00 | 0.00 | 48 | 1023.9 |
| 20260509151016 | 51 | 188 | 0.0 | 3.0 | 0.00 | 0.00 | 0.00 | 44 | 1023.9 |
| 20260509150517 | 50 | 124 | 1.0 | 4.0 | 0.00 | 0.00 | 0.00 | 43 | 1023.7 |
| 20260509150043 | 50 | 204 | 2.0 | 4.0 | 0.00 | 0.00 | 0.00 | 44 | 1023.7 |
| 20260509145516 | 49 | 205 | 1.0 | 4.0 | 0.00 | 0.00 | 0.00 | 45 | 1023.7 |
| 20260509145015 | 49 | 217 | 2.0 | 5.0 | 0.00 | 0.00 | 0.00 | 47 | 1023.6 |
| 20260509144600 | 49 | 239 | 3.0 | 5.0 | 0.00 | 0.00 | 0.00 | 46 | 1023.4 |
| 20260509144012 | 48 | 241 | 3.0 | 5.0 | 0.00 | 0.00 | 0.00 | 47 | 1023.4 |
| 20260509143513 | 47 | 251 | 3.0 | 5.0 | 0.00 | 0.00 | 0.00 | 48 | 1023.4 |
| 20260509143049 | 47 | 230 | 3.0 | 5.0 | 0.00 | 0.00 | 0.00 | 50 | 1023.4 |
| 20260509142514 | 46 | 244 | 3.0 | 5.0 | 0.00 | 0.00 | 0.00 | 51 | 1023.2 |
| 20260509142017 | 46 | 250 | 3.0 | 5.0 | 0.00 | 0.00 | 0.00 | 55 | 1023.3 |
| 20260509141549 | 45 | 242 | 3.0 | 5.0 | 0.00 | 0.00 | 0.00 | 57 | 1023.2 |
| 20260509141017 | 45 | 261 | 2.0 | 5.0 | 0.00 | 0.00 | 0.00 | 57 | 1023.1 |
| 20260509140513 | 45 | 243 | 3.0 | 5.0 | 0.00 | 0.00 | 0.00 | 57 | 1023.2 |
| 20260509140105 | 45 | 247 | 3.0 | 7.0 | 0.00 | 0.00 | 0.00 | 55 | 1023.2 |
| 20260509135516 | 45 | 225 | 4.0 | 7.0 | 0.00 | 0.00 | 0.00 | 55 | 1023.2 |
| 20260509135015 | 44 | 254 | 3.0 | 7.0 | 0.00 | 0.00 | 0.00 | 54 | 1023.1 |
| 20260509134553 | 44 | 243 | 3.0 | 6.0 | 0.00 | 0.00 | 0.00 | 55 | 1023.1 |